{"data":{"norad_id":32384,"intl_designator":"2007-062A","name":"GPS BIIRM-5 (PRN 29)","alt_names":[],"object_type":"PAYLOAD","status":"ACTIVE","operator":null,"country":"US","launch_date":"2007-12-20","launch_site_code":"AFETR","launch_vehicle":null,"mission":null,"orbit_class":"UNKNOWN","rcs_meters":2,"size_class":null,"mass_kg":null,"dimensions":null,"purposes":["earth_obs","nav"],"wikipedia_slug":null,"has_3d_model":false,"image_url":null,"decayed_at":null,"tle_current":{"epoch":"2026-05-24T20:30:32.388192Z","epoch_age_seconds":80858,"freshness":"FRESH","line1":"1 32384U 07062A   26144.85454153 -.00000076  00000+0  00000+0 0  9999","line2":"2 32384  55.0511 275.0902 0035291 164.1144   9.0351  2.00558668135046","mean_motion":2.00558668,"eccentricity":0.0035291,"inclination_deg":55.0511,"raan_deg":275.0902,"arg_perigee_deg":164.1144,"mean_anomaly_deg":9.0351,"bstar":0,"rev_number":13504,"period_min":717.9943975296,"perigee_km":20088.910943289,"apogee_km":20276.382266128,"semimajor_km":26560.783604709,"source":"CELESTRAK","updated_at":"2026-05-25T13:38:23.730347Z"}}}